Ketchikan, AK

10:40 PM AKDT on September 22, 2018 (GMT -0800)
Ketchikan International

Weather History for PAKT - November, 2017

Change the Weather History Date:

Sunday, November 12, 2017

  Actual Average Record
Temperature  
Mean Temperature 42 °F -  
Max Temperature 46 °F 45 °F 57 °F (2002)
Min Temperature 39 °F 35 °F 13 °F (1955)
Degree Days  
Heating Degree Days 22    
Moisture  
Dew Point 37 °F    
Average Humidity 81    
Maximum Humidity 93    
Minimum Humidity 61    
Precipitation  
Precipitation 0.09 in - - ()
Sea Level Pressure  
Sea Level Pressure 29.68 in    
Wind  
Wind Speed 9 mph (SSE)    
Max Wind Speed 31 mph    
Max Gust Speed 41 mph    
Visibility 10 miles    
Events Rain    
Averages and records for this station are not official NWS values.
T = Trace of Precipitation, MM = Missing Value Source: NWS Daily Summary

Daily Weather History Graph

Daily Weather History Graph

Search for Another Location

Airport or City:

Astronomy

Nov. 12, 2017 Rise Set
Actual Time 7:15 AM AKST 3:46 PM AKST
Civil Twilight 6:34 AM AKST 4:26 PM AKST
Nautical Twilight 5:49 AM AKST 5:11 PM AKST
Astronomical Twilight 5:06 AM AKST 5:54 PM AKST
Moon 12:08 AM AKST (11/12) 2:15 PM AKST (11/12)
Length of Visible Light 9h 52m
Length of Day
8h 30m
Waning Crescent, 29% of the Moon is Illuminated
Nov 12
Waning Crescent
Nov 18
New
Nov 26
First Quarter
Dec 3
Full
Dec 9
Last Quarter

Hourly Weather History & Observations

Time (AKST) Temp. Windchill Dew Point Humidity Pressure Visibility Wind Dir Wind Speed Gust Speed Precip Events Conditions
12:53 AM 39.9 °F - 37.9 °F 93% 29.64 in 10.0 mi Calm Calm - 0.01 in Rain Light Rain
1:53 AM 39.9 °F - 37.9 °F 93% 29.65 in 10.0 mi Calm Calm - 0.00 in   Overcast
2:53 AM 41.0 °F 39.0 °F 39.0 °F 93% 29.65 in 10.0 mi Variable 3.5 mph - 0.00 in Rain Light Rain
3:53 AM 43.0 °F 38.2 °F 37.9 °F 82% 29.66 in 10.0 mi South 8.1 mph - 0.00 in   Overcast
4:53 AM 44.1 °F 39.0 °F 37.0 °F 76% 29.66 in 10.0 mi South 9.2 mph - 0.00 in   Mostly Cloudy
5:53 AM 46.0 °F 37.6 °F 33.1 °F 61% 29.66 in 10.0 mi SE 24.2 mph 36.8 mph 0.00 in Rain Light Rain
6:13 AM 44.6 °F 34.6 °F 33.8 °F 66% 29.66 in 10.0 mi SE 31.1 mph 41.4 mph N/A Rain Light Rain
6:53 AM 42.8 °F 35.1 °F 35.6 °F 76% 29.68 in 10.0 mi SE 16.1 mph 28.8 mph N/A Rain Light Rain
7:53 AM 42.8 °F 33.5 °F 35.6 °F 76% 29.70 in 10.0 mi SE 23.0 mph 33.4 mph N/A Rain Light Rain
8:53 AM 42.8 °F 35.8 °F 35.6 °F 76% 29.71 in 10.0 mi SSE 13.8 mph 29.9 mph N/A Rain Light Rain
9:53 AM 42.8 °F 35.4 °F 35.6 °F 76% 29.72 in 10.0 mi SE 15.0 mph - N/A   Overcast
10:53 AM 44.6 °F 36.1 °F 37.4 °F 76% 29.73 in 10.0 mi SE 21.9 mph 33.4 mph N/A   Overcast
11:53 AM 44.6 °F 38.1 °F 35.6 °F 71% 29.73 in 10.0 mi SE 13.8 mph 21.9 mph N/A   Overcast
12:53 PM 44.6 °F 37.4 °F 37.4 °F 76% 29.74 in 10.0 mi SE 16.1 mph 27.6 mph N/A Rain Light Rain
1:53 PM 42.1 °F 37.1 °F 37.9 °F 85% 29.74 in 6.0 mi South 8.1 mph - 0.06 in Rain Light Rain
2:53 PM 42.8 °F 38.6 °F 39.2 °F 87% 29.72 in 10.0 mi SSE 6.9 mph - N/A   Overcast
3:53 PM 42.8 °F 39.3 °F 39.2 °F 87% 29.72 in 10.0 mi South 5.8 mph - N/A   Overcast
4:53 PM 42.1 °F 37.7 °F 37.9 °F 85% 29.71 in 10.0 mi Variable 6.9 mph - N/A   Overcast
5:53 PM 42.1 °F 37.7 °F 36.0 °F 79% 29.70 in 10.0 mi South 6.9 mph - 0.00 in Rain Light Rain
6:53 PM 42.1 °F 37.7 °F 37.0 °F 82% 29.70 in 10.0 mi South 6.9 mph - 0.00 in Rain Light Rain
7:53 PM 41.0 °F 37.1 °F 37.0 °F 86% 29.69 in 10.0 mi South 5.8 mph - 0.01 in   Overcast
8:53 PM 41.0 °F 37.1 °F 36.0 °F 82% 29.67 in 10.0 mi South 5.8 mph - N/A   Overcast
9:53 PM 42.1 °F 37.7 °F 36.0 °F 79% 29.65 in 10.0 mi South 6.9 mph - 0.00 in Rain Light Rain
10:48 PM 41.0 °F 36.4 °F 37.4 °F 87% 29.63 in 8.0 mi South 6.9 mph - 0.00 in Rain Light Rain
10:53 PM 39.9 °F 36.7 °F 37.0 °F 89% 29.63 in 8.0 mi South 4.6 mph - 0.01 in Rain Light Rain
11:19 PM 39.9 °F 35.8 °F 37.0 °F 89% 29.61 in 10.0 mi South 5.8 mph - 0.00 in   Overcast
11:53 PM 39.9 °F 35.8 °F 37.0 °F 89% 29.60 in 10.0 mi SSW 5.8 mph - 0.00 in Rain Light Rain